Location: Famechon
(49.7599°N, 2.0615°E)
Time: 23:03:53
(UTC+00:00)

Gblst 52 Del rocket - Pass Details

Date: 03 February 2023
Orbit: 805 x 1364 km, 51.5° (Epoch: 21 March)

Event Time Altitude Azimuth Distance (km) Brightness Sun altitude
Rises 18:36:20 0° 249° (WSW) 3,418 8.8 -17.4°
Reaches altitude 10° 18:38:52 10° 250° (WSW) 2,440 7.8 -17.8°
Maximum altitude 18:44:29 87° 163° (SSE) 814 4.0 -18.7°
Enters shadow 18:46:54 35° 74° (ENE) 1,282 4.6 -19.1°
